Flag for Canada Weather past 2 weeks in Langley, British Columbia, Canada

Now
55 °F

Refreshingly cool.


Feels Like: 55 °F
Forecast: 43 / 57 °F
Wind: 2 mph from Southeast

Location: P. Meadows Coastal Station


UV Index: 0 (Low)

Visibility: N/A


Pressure: 30.05 "Hg

Humidity: 41%

Dew point: 31 °F

Location of LangleyLocation

Historic Weather in Langley

°F

Langley temperature yesterday

Maximum temperature yesterday: 52 °F (at 2:00 PM)
Minimum temperature yesterday: 46 °F (at 10:00 PM)
Average temperature yesterday: 50 °F

Past Weeks' High & Low Weather Summary

 TemperatureHumidityPressure
High68 °F (Apr 13, 4:00 PM)100% (Apr 14, 6:00 AM)30.34 "Hg (Apr 14, 6:00 AM)
Low35 °F (Apr 14, 6:00 AM)24% (Apr 13, 12:00 PM)29.67 "Hg (Apr 17, 8:00 PM)
Average50 °F75%30.08 "Hg
* Reported Apr 3 5:00 PM — Apr 18 5:00 PM, Langley, Weather by CustomWeather, © 2014

Note: Actual official high and low records may vary slightly from our data, if they occured in-between our weather recording intervals... More about our weather records

Advertising

Historic Weather Conditions — Data for Previous 24 hours

 ConditionsComfort  
Time TempWeatherWind HumidityBarometerVisibility
5:00 PM
Apr 18
55 °FCool.2 mph38%30.06 "HgN/A
4:00 PM56 °FRefreshingly cool.5 mph40%30.07 "HgN/A
3:00 PM56 °FRefreshingly cool.3 mph40%30.08 "HgN/A
2:00 PM53 °FCool.6 mph48%30.09 "HgN/A
1:00 PM54 °FCool.5 mph56%30.09 "HgN/A
12:00 PM52 °FCool.6 mph53%30.09 "HgN/A
11:00 AM53 °FCool.7 mph52%30.07 "HgN/A
10:00 AM51 °FCool.6 mph57%30.05 "HgN/A
9:00 AM50 °FCool.6 mph68%30.04 "HgN/A
8:00 AM46 °FCool.3 mph88%30.02 "HgN/A
7:00 AM46 °FCool.5 mph84%29.99 "HgN/A
6:00 AM44 °FQuite cool.2 mph91%29.96 "HgN/A
5:00 AM45 °FQuite cool.2 mph86%29.93 "HgN/A
4:00 AM46 °FCool.5 mph75%29.90 "HgN/A
3:00 AM47 °FCool.5 mph84%29.88 "HgN/A
2:00 AM46 °FCool.3 mph87%29.87 "HgN/A
1:00 AM46 °FCool.2 mph87%29.85 "HgN/A
12:00 AM47 °FCool.8 mph79%29.82 "HgN/A
11:00 PM
Apr 17
47 °FCool.8 mph79%29.78 "HgN/A
10:00 PM46 °FCool.7 mph84%29.76 "HgN/A
9:00 PM46 °FCool.9 mph90%29.71 "HgN/A
8:00 PM50 °FCool.7 mph91%29.67 "HgN/A
7:00 PM51 °FCool.8 mph93%29.67 "HgN/A
6:00 PM51 °FCool.5 mph94%29.70 "HgN/A
Weather by CustomWeather, © 2014

See weather overview